Dewpoint
59 51 44 35 33 25 21 21 22 22 23 23 39 46 48 50 49 50 62 65 70 75 77 77 78 78 77 77 76 76 76 76 75 75 76 76 76 76 76 76 76 76 75 75 75 74 73 72 71
59 52 38 32 28 25 21 22 21 22 23 25 23 26 48 51 55 61 61 70 72 75 77 76 77 77 77 77 76 76 76 76 75 75 76 76 76 76 76 76 76 76 75 75 74 74 73 72 71
57 51 43 29 24 21 21 23 23 24 25 22 18 28 53 55 61 61 69 71 72 74 76 76 77 77 77 77 76 76 76 75 75 75 76 76 76 76 76 76 76 75 74 74 74 73 72 71 70
45 45 45 34 22 19 19 18 16 14 13 15 16 20 50 58 60 68 71 71 71 74 75 77 77 77 77 77 76 76 76 75 75 75 75 76 75 76 76 75 75 75 73 72 71 71 71 71 70
44 37 38 29 27 20 19 16 14 11 10 6 11 19 52 61 68 70 70 69 70 73 76 77 77 77 77 77 76 76 76 75 75 75 75 75 75 75 75 75 75 74 73 72 71 71 72 72 71
37 32 28 30 30 25 22 19 16 12 11 9 1 23 52 67 68 69 69 68 71 73 76 76 77 77 76 76 76 76 75 75 75 75 75 75 75 75 75 75 75 75 74 72 72 71 71 71 71
34 33 30 27 26 25 23 22 17 15 11 10 4 6 53 68 69 70 68 70 71 73 75 75 76 76 76 76 76 75 75 75 75 75 75 75 75 75 75 75 75 75 74 74 73 72 71 71 71
30 32 32 30 30 28 26 23 20 17 18 20 20 13 52 61 70 70 69 71 72 73 74 74 75 74 75 75 76 75 75 75 75 75 75 75 75 75 75 74 75 75 74 74 73 73 72 72 71
25 23 24 25 26 26 26 22 22 20 18 19 21 21 36 63 70 70 70 70 71 71 73 74 74 72 74 74 74 75 75 75 75 75 75 74 73 74 74 74 75 75 74 74 73 73 73 72 72
20 19 20 23 24 22 21 17 14 12 13 18 17 19 30 47 69 69 69 69 70 70 72 73 72 72 72 72 73 73 73 73 73 73 73 72 71 71 73 73 74 74 74 74 74 73 72 71 68
12 14 16 18 19 19 18 17 12 12 11 14 17 19 28 43 54 69 69 69 69 69 70 72 73 73 73 71 72 73 72 73 73 73 72 70 70 71 71 70 72 72 73 71 72 71 70 69 67
18 17 14 13 14 15 14 12 12 13 13 15 17 20 23 39 49 52 68 69 69 68 69 70 71 72 72 72 72 72 71 71 71 71 70 68 67 67 69 69 70 70 70 69 68 68 67 67 65
21 22 23 22 19 16 16 15 14 14 17 18 17 19 21 25 43 48 53 69 68 67 68 68 68 69 71 70 70 70 69 69 69 70 68 67 66 66 67 69 69 69 68 68 66 66 66 65 65
25 27 26 25 22 19 17 16 16 15 19 17 19 19 19 21 26 34 50 67 68 67 67 66 66 68 68 66 66 66 66 66 66 68 66 66 66 66 67 67 68 68 66 66 66 65 65 64 66
28 26 26 25 22 20 20 17 16 18 17 14 14 13 18 20 25 28 33 38 68 68 67 67 67 68 65 64 65 64 65 65 65 66 65 64 66 65 66 65 65 65 65 64 67 69 68 66 64
27 26 23 23 22 21 20 16 18 18 16 15 14 12 12 17 22 25 33 45 66 69 68 68 70 67 65 65 65 64 65 65 66 66 66 65 67 66 66 63 64 67 70 70 68 67 66 65 64
25 23 23 23 24 21 18 17 18 19 17 16 15 13 12 12 21 24 30 49 69 69 69 70 69 69 68 68 65 65 65 66 68 67 67 67 68 67 65 66 69 70 70 68 65 65 64 61 62
26 25 29 31 30 30 27 17 19 22 20 19 17 16 14 14 17 22 29 49 70 69 69 68 64 65 69 69 69 67 66 67 69 68 67 68 68 67 68 70 69 69 68 66 65 64 63 62 62
29 30 32 33 33 31 28 24 20 21 21 21 21 22 19 16 16 22 25 45 69 68 65 68 69 69 71 69 69 66 65 67 68 68 68 68 68 68 71 70 68 67 66 65 65 64 62 62 63
29 29 31 32 31 28 25 21 23 22 22 22 22 22 21 19 19 20 26 43 69 69 68 69 66 64 70 71 71 70 68 68 68 68 69 68 68 69 70 68 67 66 64 63 63 62 62 62 63
28 30 30 28 28 27 26 25 23 24 25 25 24 24 24 21 21 21 19 26 68 69 68 66 66 66 69 71 71 70 70 70 69 68 69 70 70 70 69 67 66 64 63 62 62 62 61 60 60
25 28 29 29 28 25 28 24 25 25 25 25 25 25 25 22 20 23 23 21 56 68 68 66 68 70 70 71 70 70 68 68 68 69 69 68 68 68 66 64 63 63 63 62 62 61 59 57 54
26 28 27 26 28 26 25 26 24 25 24 25 26 26 26 25 21 19 20 23 27 68 69 69 68 70 65 64 67 70 68 69 68 68 66 66 66 65 65 65 64 63 62 60 58 57 55 55 53
30 29 28 28 27 25 25 24 21 20 22 23 25 26 26 25 24 18 19 25 27 60 70 70 70 68 62 62 62 68 69 68 67 66 66 66 65 65 65 64 63 62 61 59 56 55 54 54 54
36 35 28 23 21 22 24 24 24 26 26 27 25 26 25 25 23 21 17 19 26 62 69 69 69 69 67 64 68 69 68 68 67 66 66 65 65 64 63 62 60 59 57 55 54 54 55 54 53
36 36 30 22 21 22 28 25 27 32 30 30 30 30 30 30 23 21 20 21 26 59 68 69 69 69 69 68 68 67 65 69 68 67 66 65 65 63 61 59 58 57 55 55 55 55 55 53 52
34 32 38 32 34 30 27 26 27 27 29 32 32 31 30 31 28 22 20 20 35 50 64 69 69 69 68 68 69 68 68 69 68 66 66 64 63 61 58 57 56 55 55 55 55 54 53 53 52
29 32 31 34 24 22 24 25 26 30 32 35 35 37 37 28 25 21 24 24 50 53 64 69 69 69 68 68 68 67 66 68 67 66 64 62 61 57 55 55 55 55 55 54 53 52 52 52 51
28 34 34 35 33 24 20 21 34 31 35 36 38 38 39 35 27 38 40 33 48 63 67 69 69 68 68 67 67 68 67 66 64 62 60 59 58 55 54 54 54 54 53 52 52 51 52 50 50
28 28 34 30 25 33 32 29 34 38 39 39 40 40 41 44 39 38 41 40 62 65 68 68 68 68 68 67 66 67 66 63 61 59 59 57 54 54 55 54 53 52 52 52 52 51 50 50 49
Lifted_Index
10 11 12 11 8 6 5 4 4 3 2 2 1 -0 -2 -2 -2 -2 -3 -4 -5 -5 -6 -6 -5 -5 -4 -3 -2 -2 -2 -1 -0 -0 -1 -1 -1 -1 -1 -1 -2 -2 -1 -1 -1 -1 -0 0 0
10 10 11 10 8 6 5 4 4 3 3 3 2 -0 -2 -3 -3 -3 -4 -5 -5 -6 -6 -5 -5 -5 -4 -3 -2 -2 -2 -1 -1 -0 -1 -1 -1 -1 -1 -2 -2 -2 -1 -1 -1 -1 -0 0 1
9 10 10 9 7 5 5 5 4 4 3 3 3 0 -3 -5 -5 -5 -5 -6 -6 -6 -6 -5 -5 -5 -4 -3 -3 -2 -2 -1 -1 -1 -1 -1 -1 -1 -2 -2 -2 -2 -1 -1 -0 -0 0 1 1
10 10 9 8 6 6 6 5 5 4 3 3 3 0 -4 -6 -6 -6 -6 -5 -5 -5 -5 -5 -5 -5 -4 -3 -3 -2 -2 -1 -1 -1 -1 -1 -1 -2 -2 -2 -2 -1 -1 -0 0 0 1 1 1
10 10 8 6 6 6 7 6 6 5 4 3 3 0 -4 -7 -8 -7 -6 -5 -4 -5 -5 -6 -5 -5 -4 -4 -3 -3 -2 -2 -2 -2 -2 -2 -2 -2 -2 -2 -2 -1 -1 -0 0 1 1 1 1
10 9 7 6 6 7 7 7 7 6 4 4 3 1 -4 -8 -9 -8 -6 -5 -4 -5 -5 -6 -5 -5 -4 -4 -3 -3 -2 -2 -2 -2 -2 -2 -2 -2 -2 -2 -2 -1 -1 -0 0 1 1 1 1
10 9 8 6 6 7 8 8 7 7 6 5 4 1 -4 -8 -9 -9 -7 -5 -5 -5 -5 -5 -5 -5 -4 -4 -4 -3 -3 -2 -2 -2 -2 -3 -3 -3 -2 -2 -2 -2 -1 -1 0 1 1 1 1
11 10 8 8 7 7 8 8 8 8 7 7 5 2 -4 -8 -9 -9 -8 -6 -5 -5 -5 -5 -5 -4 -4 -4 -3 -3 -3 -3 -2 -3 -3 -3 -3 -3 -3 -2 -2 -2 -1 -1 -0 0 0 0 1
11 10 9 9 9 9 8 8 8 8 8 7 6 2 -2 -7 -9 -9 -8 -7 -5 -5 -5 -4 -4 -4 -4 -4 -3 -3 -3 -3 -3 -3 -3 -3 -2 -2 -2 -2 -2 -2 -2 -1 -1 -1 -0 0 0
11 11 10 11 11 10 9 8 8 8 8 7 5 2 -2 -5 -8 -9 -9 -7 -6 -5 -5 -4 -4 -4 -4 -3 -3 -3 -3 -3 -3 -3 -2 -2 -2 -2 -2 -2 -2 -2 -2 -1 -1 -1 -1 0 1
11 11 11 11 12 11 10 9 8 8 8 8 7 4 1 -3 -5 -8 -9 -8 -7 -5 -5 -4 -4 -4 -4 -3 -3 -3 -3 -2 -2 -2 -2 -1 -0 -1 -1 -1 -1 -1 -1 -1 -1 -0 -0 0 1
9 9 10 10 11 11 11 10 9 9 8 9 8 7 5 1 -1 -4 -7 -9 -8 -6 -5 -4 -4 -4 -4 -3 -3 -3 -2 -2 -2 -1 -1 0 0 0 -0 -0 -0 -1 -0 -0 0 0 1 1 1
6 6 7 7 8 9 10 10 10 9 9 9 9 8 7 5 3 2 -2 -6 -8 -7 -6 -5 -4 -3 -3 -3 -3 -2 -1 -1 -1 -1 -0 1 1 1 0 0 0 0 0 1 1 1 1 0 0
4 4 4 5 5 6 7 8 9 9 8 8 8 7 7 6 6 6 4 -2 -6 -7 -7 -5 -4 -3 -2 -2 -2 -1 -0 -0 -0 -0 0 1 1 1 0 0 0 -0 0 0 0 -0 -1 -1 -1
3 3 3 4 4 4 5 6 7 8 7 7 7 7 6 6 6 7 6 2 -3 -6 -6 -6 -4 -3 -2 -2 -1 -1 0 0 -0 -0 0 1 0 -0 0 0 0 -0 -1 -1 -1 -2 -2 -2 -2
3 3 3 3 3 3 3 4 6 7 7 7 7 7 6 6 5 5 6 3 -2 -5 -5 -5 -4 -3 -2 -2 -2 -1 -0 0 -0 -1 -0 -0 -1 -1 -0 -0 -0 -1 -1 -1 -2 -2 -2 -2 -2
3 3 3 3 2 2 2 3 4 5 6 6 7 7 6 5 5 5 4 1 -3 -5 -4 -4 -4 -3 -2 -3 -3 -3 -1 -1 -1 -2 -2 -1 -1 -2 -1 -1 -1 -2 -2 -2 -2 -2 -2 -2 -1
2 2 2 2 1 1 1 2 3 4 4 5 6 7 6 6 5 5 4 1 -4 -5 -4 -3 -3 -2 -3 -4 -4 -3 -3 -2 -2 -3 -3 -2 -2 -2 -2 -3 -3 -3 -2 -2 -2 -2 -1 -1 -1
2 2 2 1 1 0 1 1 2 3 3 4 5 6 7 6 6 5 4 1 -4 -6 -4 -3 -2 -3 -3 -4 -4 -4 -3 -3 -3 -4 -4 -3 -3 -3 -4 -4 -3 -3 -2 -2 -1 -1 -1 0 1
2 2 2 1 0 0 0 1 2 2 2 3 4 5 6 6 6 5 5 2 -4 -6 -5 -4 -3 -3 -4 -4 -5 -4 -4 -4 -4 -4 -4 -4 -3 -4 -4 -4 -3 -3 -2 -1 -0 0 1 1 2
2 2 2 1 1 0 0 1 2 2 2 2 2 4 5 6 6 5 5 3 -3 -6 -6 -5 -4 -3 -4 -5 -5 -4 -4 -5 -5 -4 -4 -4 -4 -4 -4 -4 -3 -2 -2 -1 0 1 2 2 2
2 2 2 2 1 1 1 1 2 2 2 2 2 3 4 5 5 5 5 4 -1 -6 -7 -6 -5 -5 -5 -5 -5 -4 -4 -5 -5 -5 -5 -5 -4 -4 -4 -4 -3 -2 -1 0 1 2 2 2 3
2 2 2 2 2 1 1 1 1 2 2 2 2 2 3 4 5 5 5 5 2 -4 -8 -7 -6 -5 -5 -5 -3 -3 -4 -5 -5 -5 -5 -5 -5 -5 -4 -3 -3 -2 -0 2 2 3 3 3 4
1 1 1 2 1 2 2 2 2 2 2 2 2 2 2 3 4 5 5 5 3 -3 -8 -8 -7 -6 -5 -4 -2 -2 -3 -4 -4 -4 -4 -5 -5 -5 -4 -3 -2 -0 1 3 3 3 4 5 6
1 1 1 1 1 1 2 2 2 2 1 2 2 2 2 2 3 4 4 5 3 -2 -8 -9 -7 -6 -5 -4 -3 -3 -3 -3 -4 -4 -4 -4 -4 -4 -4 -3 -1 1 3 3 3 4 5 7 8
1 1 1 0 0 1 2 2 2 1 1 1 1 1 1 2 3 4 4 4 3 -2 -7 -9 -8 -7 -6 -5 -4 -3 -3 -3 -4 -4 -3 -3 -3 -3 -3 -1 1 2 3 3 4 5 7 8 9
2 2 1 1 1 1 2 2 2 1 1 1 1 1 1 1 2 3 4 4 3 -1 -6 -8 -8 -7 -6 -6 -5 -4 -4 -4 -4 -4 -3 -3 -3 -2 -1 1 2 3 4 5 6 7 8 10 10
2 2 2 1 1 1 1 2 1 1 1 0 0 -0 0 1 1 2 2 3 2 -1 -5 -8 -8 -7 -6 -6 -5 -4 -4 -4 -4 -4 -3 -3 -2 -1 0 2 3 3 4 6 8 9 9 10 10
2 2 1 1 1 1 1 1 1 0 0 0 -0 -0 -1 -1 -0 0 1 1 -0 -3 -7 -8 -8 -7 -6 -5 -4 -4 -4 -4 -4 -4 -3 -2 -1 0 1 2 3 4 6 8 9 10 10 10 11
2 2 1 1 1 1 1 1 1 0 -0 -0 -0 -0 -1 -1 -1 -0 0 -0 -3 -5 -7 -8 -7 -6 -5 -5 -4 -3 -4 -4 -4 -4 -3 -2 -0 1 2 3 4 5 7 9 10 10 10 11 11